FENGYUN 1C DEB

Satellite information

Favourite Embed

Satellite Type and Status

DEBRISIN ORBIT

Key statistics

Satellite FENGYUN 1C DEB at a glance.

Uptime

9665

Days in orbit

Revolutions

≈ 14.1

Per day

Orbit

SSO

Sun Synchronous Orbit

Inclination

99.1

Latest

Satellite identification and parameters

Extended collection of information and parameters for FENGYUN 1C DEB.

Object identification

Identified? True

Debris? True

Object name: FENGYUN 1C DEB

International designator: 1999-025BK

Object number (NORAD): 29769

Object ID (CCSDS): 29769

Country: PEOPLES REPUBLIC OF CHINA (PRC)

Current information (Y/N): Y

RCS size: SMALL

Orbital parameters

Period: 101.902 minutes

Inclination: 99.1095 deg

SMA: 7226.857 km

Apoapsis: 915.484 km

Periapsis: 781.961 km

RAAN: 354.01 deg

Eccentricy: 0.009238

Argument of periapsis: 267.5113 deg

Mean anomaly: 91.548 deg

Mean motion: 14.13118361 rev/day

Mean motion (dot): 0.00003622 rev/day2

B* drag term: 0.0018843809 1/REarth

Two-line elements (TLE)

Creation date: Oct. 25, 2025, 3:11 a.m.

Reference frame: TEME

Reference center: EARTH

Epoch: Oct. 24, 2025, 2:28 p.m. UTC

TLE line 0: 0 FENGYUN 1C DEB

TLE line 1: 1 29769U 99025BK 25297.60314888 .00003622 00000-0 18844-2 0 9991

TLE line 2: 2 29769 99.1095 354.0100 0092380 267.5113 91.5480 14.13118361959872

Live tracking on map

Real-time ground track for satellite FENGYUN 1C DEB.

In-orbit conjunctions

A list of the most updated potential collisions computed for object FENGYUN 1C DEB.

Target Orbit TCA Probability of collision Miss distance Type
DELTA 1 R/B SSO 2025-06-18 13:36:54 0.0001813468 593.0 (m) ROCKET BODY
FENGYUN 1C DEB SSO 2025-01-23 09:54:15 0.000147045 33.0 (m) DEBRIS
CZ-6A DEB LEO 2025-01-18 07:16:18 0.0002143112 629.0 (m) DEBRIS

Associated space launch

Chinese polar orbiting meteorological satellite

FENGYUN 1C DEB was lifted into orbit during the mission ‘Long March 4B | Feng Yun 1C’, on board a Long March 4B space rocket.

The launch took place on May 10, 1999, 1:33 a.m. from Launch Complex 7.

For more information about the launch, click the button.

Launch to space Long March 4B | Feng Yun 1C
Long March 4B | Feng Yun 1C

Agency: N/A

Status: Launch Successful

Launch date: May 10, 1999, 1:33 a.m. UTC

Rocket: Long March 4B

Launch pad: Launch Complex 7

Location: Taiyuan Satellite Launch Center, People's Republic of China

...

Latest news about this satellite

There are no fresh news available about this satellite. Check back as we update our databases every day.


Newsletter sign-up

Weekly statistics, charts and insights to help you stay on top of the space industry.